RH
98 97 92 93 90 93 96 96 100 99 100 100 93 94 65 54 52 56 43 54 46 76 87 69 60 57 57 62 84 65 73 77 87 86 81 86 78 66 67 63 73 77 85 83 81 90 90 52 60 65 64 62 66 69
97 93 92 92 88 95 83 100 100 100 100 100 95 82 59 54 52 55 52 58 45 49 92 80 74 70 64 62 67 75 77 84 86 90 85 81 75 76 74 80 59 76 70 75 72 75 53 53 64 66 64 74 78 77
95 87 94 90 92 90 76 100 99 100 100 98 90 80 77 57 54 53 57 52 42 83 83 68 75 69 65 64 69 71 76 78 79 80 84 88 80 85 82 84 71 67 64 79 68 63 57 74 76 72 71 75 82 86
95 91 92 90 92 87 91 100 100 100 100 100 100 84 58 56 54 54 55 49 46 58 83 94 86 74 68 61 63 63 66 70 77 76 77 85 84 73 84 77 78 72 65 66 67 62 68 72 71 71 75 73 73 82
93 90 94 91 91 80 90 99 100 98 100 100 99 92 80 54 49 56 51 46 46 52 91 94 86 91 86 66 68 70 69 68 68 73 92 91 80 79 74 71 80 65 71 74 73 69 68 69 79 76 70 66 80 90
92 92 87 91 83 75 92 98 99 98 100 99 99 96 81 57 58 55 52 54 57 42 64 98 93 92 86 77 70 71 68 67 68 70 78 73 71 82 83 79 54 56 55 55 71 67 73 77 75 80 60 66 69 72
91 89 88 91 84 72 100 100 98 100 99 100 95 91 82 63 59 55 48 53 44 33 43 97 99 85 83 79 78 72 63 70 67 71 72 70 70 76 88 77 53 53 64 68 69 66 76 78 64 51 50 50 52 53
91 89 87 88 78 73 100 100 98 100 99 98 93 86 73 59 51 50 48 43 38 33 44 95 98 87 84 77 82 80 75 75 77 78 70 73 69 71 84 65 57 59 57 63 57 48 49 50 48 48 53 51 52 54
86 86 87 89 79 76 100 100 100 100 99 94 79 81 60 54 52 50 33 19 22 22 75 83 95 96 79 75 83 78 77 87 75 87 80 75 82 88 66 58 59 54 53 51 40 38 39 39 39 41 44 50 63 59
86 86 86 70 98 96 100 98 100 100 93 87 72 63 54 50 48 46 37 22 21 28 39 92 79 97 77 76 78 76 76 92 90 87 73 83 88 68 61 53 43 42 39 36 30 28 30 28 36 37 40 47 53 55
84 84 74 88 100 99 100 99 100 98 85 73 58 60 54 52 40 32 37 45 59 86 73 80 80 94 89 88 86 76 79 78 87 91 92 79 87 68 56 38 32 30 29 30 34 40 43 44 46 52 53 51 49 50
81 77 76 99 100 99 99 100 99 75 60 52 50 56 51 38 34 55 87 70 80 84 83 80 84 88 84 75 77 79 80 81 78 84 81 85 96 56 38 31 27 26 27 28 31 36 37 45 49 54 55 42 36 38
74 79 80 98 100 100 100 98 79 55 54 50 43 38 49 45 50 40 45 78 91 92 86 87 97 86 83 74 71 70 79 84 80 77 79 76 81 52 36 28 27 31 34 34 34 38 41 45 50 49 37 30 31 32
68 74 75 94 100 99 99 97 67 68 54 29 30 47 60 59 71 78 76 84 87 76 73 74 88 84 82 76 70 94 76 76 88 89 87 92 59 39 29 30 32 35 39 37 39 41 42 45 49 46 32 31 36 34
70 65 95 99 99 98 100 93 81 64 34 33 42 43 79 80 98 97 88 83 84 64 50 75 84 82 90 94 89 87 83 99 90 89 87 71 46 29 30 33 36 34 34 35 38 43 47 48 50 43 32 36 35 36
80 95 100 100 100 99 100 94 88 51 30 43 57 81 88 90 97 92 88 87 65 52 48 48 93 92 96 94 93 94 90 95 84 96 73 51 31 32 32 32 30 31 32 33 32 33 41 51 54 41 40 49 63 62
99 100 100 100 100 100 97 88 48 40 50 61 82 72 78 73 90 80 75 62 57 44 87 78 63 69 91 95 92 92 90 86 76 60 32 33 34 33 33 31 37 41 42 43 45 44 41 38 48 43 49 63 76 73
99 100 100 100 99 100 82 57 39 47 90 82 82 82 84 76 70 60 53 56 44 37 53 68 66 82 81 68 87 84 63 65 68 57 38 36 36 36 35 34 40 42 45 47 49 50 45 40 41 46 48 62 82 72
100 99 100 99 97 71 48 43 43 89 96 86 84 79 78 75 59 50 44 43 36 32 32 41 70 81 82 63 59 51 44 42 41 39 36 31 30 31 32 36 41 46 50 51 54 51 49 48 48 50 55 57 80 82
100 99 99 90 58 31 43 60 53 60 84 74 74 76 90 81 66 47 42 34 29 28 32 65 60 50 39 36 34 34 37 39 38 34 27 27 31 35 39 47 53 52 54 52 49 50 54 56 53 54 61 68 68 71
100 100 86 56 39 38 60 62 67 70 71 77 77 84 84 75 60 46 41 33 31 40 51 44 40 35 34 34 37 38 37 32 33 37 40 42 38 41 44 46 48 51 54 52 56 60 66 71 70 69 68 74 76 80
99 96 69 50 34 51 63 65 57 63 69 76 77 72 82 83 70 54 46 41 50 51 46 36 34 35 36 33 31 32 32 28 28 31 35 39 40 41 44 48 52 56 65 70 78 85 90 92 93 90 86 80 80 81
97 74 60 35 48 56 79 79 71 71 76 86 79 85 93 77 70 57 57 60 58 47 40 38 35 28 25 32 37 33 25 20 23 36 42 47 52 56 64 67 74 81 89 94 97 100 99 98 100 100 99 95 86 83
76 55 39 55 58 100 82 86 72 74 83 92 88 90 94 74 60 67 74 60 45 42 43 37 23 26 30 34 34 29 28 34 40 45 52 56 59 62 76 80 84 86 95 98 98 100 100 100 99 97 93 96 95 92
42 68 57 97 77 83 88 94 95 84 91 95 84 86 90 71 90 84 77 51 44 43 35 23 26 31 33 35 33 33 41 46 52 54 52 60 67 72 70 70 70 77 88 100 92 88 87 85 83 86 90 96 96 90
86 91 82 81 86 74 85 84 84 90 92 88 94 90 84 91 69 58 77 42 40 30 21 24 30 36 37 33 32 36 43 49 57 56 56 59 64 71 80 87 99 90 89 96 98 94 92 92 93 91 89 95 99 98
90 94 77 72 62 66 79 84 83 79 74 75 91 94 81 62 65 57 37 34 31 22 25 31 35 36 30 34 40 46 56 60 59 60 59 59 65 78 82 91 96 94 97 98 98 99 99 98 97 98 99 99 99 100
88 78 72 78 74 65 87 90 78 75 91 72 67 76 57 57 61 36 32 27 25 27 32 37 31 27 31 37 46 56 59 57 61 61 60 63 70 78 89 94 99 99 96 94 98 99 100 100 98 97 98 99 97 97
95 77 65 94 87 90 94 83 83 69 62 51 74 84 57 38 36 31 28 28 29 33 36 26 24 31 37 48 60 65 64 65 61 62 66 73 77 81 87 92 94 91 88 88 92 99 100 100 99 99 97 98 99 100
85 82 87 91 89 93 94 82 77 67 60 48 43 43 42 38 35 27 28 31 34 25 20 24 29 33 41 52 64 68 66 61 64 73 79 86 92 91 94 92 92 91 90 92 93 93 96 97 97 99 100 100 99 97
90 76 82 90 98 93 87 72 61 55 52 51 43 37 40 38 37 37 34 20 16 24 28 30 34 42 57 71 75 70 62 62 69 76 82 86 91 93 95 100 98 95 94 96 95 93 92 93 93 94 94 94 92 90
77 82 82 91 92 85 75 68 67 59 55 48 46 41 35 29 24 19 14 16 22 27 33 36 43 53 68 78 74 64 60 65 70 73 77 78 81 90 100 100 99 96 95 95 94 93 93 93 92 91 91 92 92 92
75 77 71 79 88 86 69 65 65 64 61 59 52 42 31 21 17 17 15 18 24 34 39 45 53 60 75 77 66 59 63 67 70 74 77 80 87 98 90 86 89 92 92 93 90 91 93 94 94 94 93 92 93 94
Wind_Speed
35 35 35 35 32 32 34 35 17 4 25 23 25 22 22 23 29 25 16 11 10 9 13 7 7 5 6 5 4 5 4 2 2 1 2 1 2 2 2 4 6 5 4 3 2 1 3 8 3 1 4 9 8 9
34 35 33 33 30 29 33 23 6 14 24 25 24 21 17 19 23 23 19 12 9 12 12 13 14 10 9 8 11 4 3 2 3 3 1 2 1 2 3 3 1 2 4 4 4 4 7 7 19 12 9 7 6 10
34 34 32 29 27 27 31 12 4 20 22 23 23 19 15 18 23 20 22 19 15 21 11 7 10 8 6 7 10 5 3 4 4 4 3 2 2 2 2 2 3 1 1 3 4 1 3 22 14 9 7 6 7 7
32 32 30 27 25 23 24 14 5 22 25 22 19 18 16 20 21 15 22 19 15 13 6 6 4 6 6 6 5 6 11 7 8 5 3 2 2 1 2 2 2 4 4 3 2 2 14 9 6 6 6 8 11 10
30 30 27 23 22 20 19 6 11 24 24 19 18 17 15 18 17 18 23 19 17 2 7 9 10 11 8 8 10 11 12 12 5 3 3 1 0 1 2 2 2 5 5 4 4 5 2 1 7 5 8 10 10 12
30 27 23 21 20 16 11 9 30 26 25 19 15 13 17 17 21 24 9 12 6 17 9 3 5 6 9 8 9 10 10 8 5 3 2 2 2 1 1 2 2 5 7 5 6 2 4 4 3 5 15 13 14 15
27 24 20 20 18 13 5 26 27 27 24 19 15 14 23 26 28 7 5 18 21 7 7 5 3 3 6 7 8 8 8 6 4 3 2 1 1 1 1 2 2 9 10 6 3 3 3 2 5 11 12 15 17 20
23 21 20 20 20 12 17 32 26 27 24 20 19 28 26 16 9 12 25 18 10 6 6 4 2 3 3 3 3 4 4 3 4 2 2 1 1 2 2 5 10 10 6 6 4 6 5 9 10 12 16 18 22 22
22 20 21 22 19 17 32 39 29 31 26 21 27 29 14 5 8 14 14 12 9 4 7 4 4 3 5 4 3 3 2 2 1 1 1 1 0 2 4 4 10 6 4 3 5 6 8 12 16 18 20 22 24 28
20 20 19 16 19 32 50 40 38 32 26 24 29 8 4 4 25 15 4 2 2 4 5 4 6 3 6 4 2 2 3 2 1 1 2 1 2 8 12 12 9 6 5 6 10 14 16 18 20 21 22 23 24 26
22 20 17 18 35 52 44 43 38 32 32 34 11 6 12 26 8 2 2 3 2 4 4 5 7 6 4 3 2 1 2 1 2 1 3 2 2 3 6 8 7 5 5 6 8 11 13 17 21 22 23 23 24 26
24 24 21 24 44 39 43 42 39 43 27 16 9 20 19 5 2 4 1 2 3 4 5 6 7 6 6 4 4 2 2 1 2 1 2 2 2 8 5 3 3 5 8 9 11 14 17 18 18 19 21 24 25 26
28 29 27 27 41 39 41 42 41 34 23 23 9 7 5 2 4 5 5 2 2 8 9 10 3 5 5 4 4 2 3 2 4 2 2 2 10 7 1 4 7 9 11 13 13 14 17 19 17 19 23 23 25 27
31 27 30 30 33 45 44 45 46 29 22 6 7 3 4 2 4 3 3 4 6 17 26 21 8 5 4 2 3 4 2 3 2 1 4 3 12 5 4 8 12 13 13 15 17 19 21 21 21 21 20 23 25 27
31 30 25 41 50 52 46 49 39 28 5 3 3 5 3 5 4 9 14 13 14 31 21 15 9 6 2 3 1 2 2 1 4 4 2 12 6 6 9 11 12 13 14 16 17 20 22 21 20 22 21 20 19 21
31 31 36 54 55 54 51 52 30 9 3 2 4 4 8 7 2 7 18 22 30 22 14 7 4 4 1 4 3 4 5 5 3 3 10 7 6 10 12 11 8 9 12 15 18 21 23 23 22 22 18 11 13 21
38 20 56 59 58 54 53 33 16 3 3 3 3 9 6 12 10 12 22 19 22 6 3 5 4 3 3 3 1 3 4 3 6 10 5 6 10 13 12 9 7 10 14 17 20 23 25 25 23 22 18 12 15 22
19 57 65 64 60 54 35 9 6 4 5 6 3 6 8 10 23 20 16 22 5 5 6 4 9 3 4 4 3 3 7 5 6 6 8 10 13 15 14 13 12 14 18 22 25 30 30 28 26 25 24 20 21 22
54 69 68 63 60 38 12 5 3 6 6 7 10 12 13 16 17 20 24 9 9 12 13 4 5 3 3 5 4 7 5 4 4 7 10 13 15 16 17 18 19 22 25 29 29 32 30 26 28 27 26 24 25 24
70 69 66 54 44 20 7 7 6 7 5 5 10 9 10 10 19 17 14 15 12 4 4 3 3 5 5 6 5 3 1 2 6 9 13 15 17 19 20 20 24 29 31 31 30 26 25 28 29 27 24 21 23 25
71 66 56 42 19 7 8 8 6 6 11 8 15 5 9 12 9 7 7 7 2 2 2 3 10 9 6 5 2 2 3 5 8 12 16 22 23 24 25 25 26 27 27 26 27 27 27 30 30 27 26 23 20 19
56 63 46 33 6 6 8 7 11 13 7 11 7 6 8 4 4 4 6 2 2 3 4 9 10 7 6 6 6 6 7 11 13 15 17 19 22 23 23 24 25 27 26 25 26 28 30 29 27 25 25 24 21 21
56 50 29 8 6 4 7 7 4 4 5 5 6 5 3 3 3 6 2 2 3 6 11 11 9 8 10 9 4 9 12 14 15 16 17 19 23 27 30 30 27 27 28 28 26 27 28 26 23 21 22 23 21 20
49 17 7 5 4 5 8 3 5 7 7 3 3 4 1 3 5 2 1 2 4 10 13 11 11 10 7 0 9 13 13 15 17 19 23 28 32 33 27 26 25 23 23 25 23 21 22 23 23 24 24 23 20 20
8 4 5 3 5 6 5 3 3 4 4 2 5 3 2 4 2 1 2 3 9 13 14 13 11 7 3 9 12 11 13 16 20 26 28 29 29 29 27 22 20 20 20 21 25 26 26 25 25 23 20 19 19 19
6 4 3 3 3 5 4 5 4 5 5 4 4 5 3 2 3 4 3 8 12 16 15 11 7 3 8 11 10 13 16 20 24 28 28 27 24 23 22 23 22 21 23 24 25 27 28 27 26 23 17 14 16 16
4 1 3 5 8 12 7 8 7 5 6 4 4 4 3 3 4 3 7 11 14 15 12 7 4 9 8 7 10 14 19 23 26 26 24 20 19 17 20 19 24 23 21 22 24 24 24 23 22 17 11 10 12 14
4 5 6 6 9 6 7 3 5 4 4 8 12 3 8 8 5 8 8 15 15 12 7 4 6 3 6 10 13 18 22 26 24 20 17 16 17 16 14 15 13 15 18 21 23 21 20 18 15 12 10 12 13 12
5 6 9 5 8 10 10 4 3 3 9 10 4 3 5 5 11 13 20 18 12 6 5 1 1 5 9 12 17 22 27 24 21 22 22 20 19 16 13 11 15 17 18 21 18 17 16 14 13 12 13 13 12 12
4 6 8 7 6 4 3 5 8 14 12 9 9 9 9 13 17 18 16 12 7 3 3 1 5 8 11 15 20 24 23 20 20 21 21 21 20 17 15 17 18 18 20 23 20 17 12 11 10 9 10 11 11 11
6 7 11 9 5 4 12 19 18 16 11 9 13 13 12 10 12 12 9 8 8 3 1 4 7 9 14 18 23 24 18 18 18 18 19 18 17 15 14 18 21 20 22 21 17 16 14 13 12 11 10 10 10 10
8 7 7 5 4 11 14 5 4 5 5 4 5 7 8 6 5 9 12 10 5 2 1 5 7 11 16 19 22 18 17 16 15 16 16 16 16 15 16 17 18 17 18 16 15 14 13 12 11 11 11 10 10 9
7 14 16 9 6 5 5 6 4 4 4 3 3 4 3 5 4 7 12 7 4 2 3 5 8 13 16 20 16 14 13 13 14 15 15 15 15 14 13 12 13 15 15 15 14 13 13 12 12 11 11 11 11 10
Wind_Direction
308 310 312 315 320 323 323 327 318 295 182 179 174 166 171 184 196 194 190 181 164 103 56 89 122 130 129 132 129 157 99 345 60 110 140 293 122 220 100 157 163 160 152 202 135 135 297 340 33 175 149 63 49 13
306 310 309 313 317 318 316 341 358 173 186 178 166 158 172 185 193 192 180 170 160 108 106 100 101 101 112 116 123 105 113 102 145 99 55 92 60 39 153 205 30 168 185 156 145 185 178 88 112 105 99 80 10 335
303 305 306 307 309 314 315 2 106 184 177 170 155 147 168 177 174 177 171 159 150 107 90 105 64 82 116 127 137 126 133 148 136 112 130 143 113 118 152 220 115 318 118 136 139 48 119 121 98 69 20 4 341 328
300 301 301 300 304 308 311 9 140 186 181 168 152 147 159 168 170 173 176 164 146 120 103 58 55 87 89 117 136 128 141 132 132 109 79 126 140 35 217 196 162 196 127 147 91 99 116 99 61 353 347 342 329 339
295 295 293 290 294 299 310 286 176 191 175 159 165 161 158 174 169 174 172 163 161 140 125 128 86 77 80 122 129 129 129 128 105 77 51 159 151 73 334 49 261 192 177 164 216 165 183 225 340 330 337 332 330 335
291 289 283 279 284 287 294 306 177 185 168 169 162 164 162 155 160 160 136 173 197 136 109 95 90 80 84 101 122 127 123 105 87 86 98 84 66 67 127 223 253 145 124 118 151 204 297 295 299 312 329 334 332 325
283 277 265 261 260 271 181 162 183 171 165 167 159 164 155 154 161 198 195 156 156 139 107 112 89 104 95 75 76 74 82 77 74 90 73 100 61 11 110 239 200 130 111 93 55 16 103 255 311 324 331 331 328 330
273 262 253 252 248 246 170 176 184 164 167 169 174 149 143 157 192 130 131 144 145 113 93 102 100 88 81 64 74 64 79 77 53 72 80 62 358 48 265 269 133 118 105 99 38 0 334 327 328 331 332 330 326 326
257 246 239 239 241 230 173 177 180 168 167 169 162 141 134 124 128 143 123 109 104 95 109 98 130 175 117 86 67 80 69 80 77 91 105 99 252 246 249 156 111 98 93 15 351 347 347 339 333 332 329 330 326 326
238 227 230 233 227 190 174 180 170 163 161 159 155 150 197 185 140 135 141 147 96 60 71 91 116 95 139 151 83 110 12 93 97 215 113 110 265 83 100 102 93 80 58 13 350 348 338 331 328 325 324 324 324 324
218 211 204 213 159 169 174 169 162 153 151 141 169 180 152 148 147 121 92 65 72 47 70 96 116 122 131 129 117 125 146 120 154 220 133 202 174 153 110 95 80 51 15 346 326 315 311 307 310 316 320 324 326 326
203 193 200 155 162 174 168 163 154 157 149 147 157 129 139 181 116 86 326 351 63 171 125 112 115 113 112 106 104 185 115 184 186 162 158 220 155 152 124 66 22 349 334 331 322 321 320 317 312 312 317 322 324 322
190 184 192 176 157 160 170 158 157 152 141 130 130 159 162 139 45 149 180 261 114 168 151 142 111 113 109 103 91 127 164 145 135 202 220 221 164 170 224 318 325 324 325 323 324 324 324 320 318 318 321 326 325 322
186 186 184 197 184 175 174 159 161 154 146 149 156 146 159 251 244 188 166 145 131 145 137 125 103 106 117 115 141 94 172 109 34 305 234 213 177 200 278 306 312 324 329 326 328 324 323 322 312 315 320 322 322 323
183 182 190 172 173 175 167 164 165 161 147 157 166 187 185 131 90 112 114 118 127 141 131 113 86 97 84 98 160 81 128 291 195 225 221 173 189 268 294 308 317 323 325 328 328 322 318 318 311 310 318 323 330 336
176 181 171 171 170 165 164 168 172 162 126 124 90 93 130 87 76 102 120 126 140 135 112 89 100 71 62 132 82 202 124 211 241 210 164 187 254 284 296 301 309 325 332 335 336 334 327 319 310 305 308 321 346 351
170 186 169 168 163 160 164 157 158 142 98 71 44 106 119 109 129 143 146 145 147 141 116 114 83 180 101 57 196 181 194 216 176 168 208 273 289 294 292 282 298 322 330 332 332 333 330 329 313 292 287 296 330 343
187 161 165 164 158 154 154 161 148 112 80 72 83 90 94 122 138 136 140 147 147 116 139 150 126 98 157 154 244 229 210 199 204 236 286 300 303 300 284 272 290 310 318 321 322 326 325 320 311 299 281 285 302 328
160 162 164 160 153 146 138 146 107 93 79 86 104 107 106 109 126 140 144 144 120 111 119 95 82 146 207 205 177 165 182 216 269 297 309 317 315 307 297 281 286 301 310 315 318 321 320 319 319 310 298 283 287 307
159 164 159 148 150 138 108 104 109 103 120 121 114 103 101 108 124 126 130 124 111 103 72 78 161 156 138 137 148 141 96 327 315 314 322 325 323 314 305 295 292 302 307 310 312 314 316 320 321 322 314 300 290 292
158 156 148 154 140 95 104 125 95 108 120 107 123 96 97 116 115 121 108 114 86 67 105 126 133 132 133 127 105 55 20 356 336 323 320 314 315 313 308 306 306 304 306 309 312 312 310 313 314 315 315 312 300 293
150 153 149 153 117 92 87 85 117 122 105 129 120 96 106 97 93 94 122 81 89 106 127 145 149 147 131 111 102 72 15 343 325 321 318 318 318 320 321 320 317 311 309 308 313 310 308 308 311 314 316 314 308 299
143 147 141 137 104 84 118 114 109 98 112 144 110 86 53 80 115 136 101 167 189 173 157 156 158 147 133 124 59 359 350 339 332 331 333 328 322 315 313 312 311 311 310 309 308 304 304 306 306 309 309 313 315 310
141 137 137 112 97 121 133 90 101 103 111 97 83 103 96 111 131 66 191 223 192 179 175 168 159 154 159 114 343 346 344 341 332 328 332 327 321 321 322 320 318 313 305 304 306 307 308 307 306 308 310 311 308 305
124 76 141 83 132 120 102 110 90 79 99 128 109 93 101 110 82 104 218 204 180 174 171 168 175 187 272 327 339 345 342 337 329 325 330 326 321 317 320 322 324 325 324 317 314 319 321 320 316 314 308 316 322 318
79 22 51 141 123 106 161 114 141 140 122 89 72 120 117 105 107 218 225 176 174 176 176 183 193 266 320 326 336 341 336 329 325 323 327 326 324 321 322 325 327 322 322 318 319 321 320 320 319 318 313 320 332 323
116 205 99 84 106 118 99 81 108 94 86 113 153 146 132 121 223 241 160 156 162 167 177 188 261 310 321 338 340 336 332 328 325 324 329 329 326 321 319 321 320 326 330 332 328 323 322 324 326 324 326 341 352 340
105 152 129 137 85 84 117 99 75 92 122 140 137 147 149 174 196 158 158 160 160 165 180 276 307 327 340 338 336 333 330 329 327 332 333 329 334 331 332 325 327 328 329 334 336 335 327 324 327 326 321 326 336 340
85 110 110 68 81 52 52 81 110 114 138 159 117 158 175 137 144 153 158 161 167 201 293 294 348 340 335 334 332 335 336 333 336 340 345 347 350 356 350 345 334 334 337 340 349 345 335 331 326 321 317 322 326 329
57 77 87 57 66 67 47 84 115 128 125 123 112 118 118 133 146 151 161 178 220 220 152 341 330 322 323 328 334 339 337 338 340 342 344 345 346 350 351 348 347 345 345 352 351 352 346 339 335 324 314 313 316 324
101 95 72 62 79 71 115 117 114 109 109 111 122 129 126 142 168 177 189 167 147 130 26 324 316 319 329 335 337 338 342 344 345 344 341 340 341 340 338 344 343 342 348 349 348 353 359 359 355 352 350 348 347 345
55 64 113 99 104 132 121 108 91 87 109 112 104 123 130 131 141 156 156 153 145 108 302 302 307 320 330 335 337 340 345 348 349 352 350 350 353 354 349 334 335 342 349 355 357 358 358 1 2 1 2 3 3 3
78 88 96 100 116 155 143 125 93 100 77 89 85 119 127 145 142 161 166 165 177 214 272 286 310 326 332 334 339 345 350 355 359 2 3 6 9 357 359 6 5 4 6 8 12 14 14 15 16 17 17 16 14 14